Location: NCO
(38.4404°N, 77.1340°W)
Time: 07:55:56
(UTC-04:00)

Amateur Radio Satellites - All Passes

Search period start: 23 April 2017 07:25
Search period end: 24 April 2017 07:25
Location: NCO, 38.4404°N, 77.1340°W

Satellite Date Start Highest point End Downlink Frequencies (MHz)
Time Altitude Azimuth
M-CUBED/EXP-1 PRIME 23 Apr 07:25:56 07:30:28 86° 71° (ENE) 07:35:10 437.505
XW-2D 23 Apr 07:28:23 07:32:10 72° 283° (WNW) 07:35:57 145.860 - 145.880
YUBILEINY 23 Apr 07:30:16 07:35:50 18° 296° (WNW) 07:41:28 435.215
XW-2B 23 Apr 07:35:14 07:38:59 60° 284° (WNW) 07:42:44 145.730 - 145.750
LilacSat-2 23 Apr 07:41:26 07:45:06 47° 286° (WNW) 07:48:48 437.200
HO-68 23 Apr 07:46:05 07:52:09 29° 96° (E) 07:58:11 435.675
XW-2C 23 Apr 07:47:05 07:50:39 41° 287° (WNW) 07:54:16 145.795 - 145.815
KAITUO 1B 23 Apr 07:54:55 07:58:29 41° 286° (WNW) 08:02:02 145.475/437.950
CUTE-I 23 Apr 07:57:46 08:02:59 58° 288° (WNW) 08:08:10 437.470
STRAND 1 23 Apr 07:58:00 08:03:06 71° 258° (WSW) 08:08:12 437.568
SO-50 23 Apr 08:12:59 08:17:34 62° 304° (WNW) 08:22:07 436.795
XW-2F 23 Apr 08:16:23 08:19:09 20° 291° (WNW) 08:21:57 145.980 - 146.000
XW-2A 23 Apr 08:20:24 08:23:40 50° 100° (E) 08:26:56 145.665 - 145.685
CUTE 1.7 + AOD 2 23 Apr 08:33:33 08:37:50 71° 102° (ESE) 08:42:06 437.475
NUDT-PHONESAT 23 Apr 08:41:29 08:43:00 12° 294° (WNW) 08:44:31 437.300
AAUSAT CUBESAT 2 23 Apr 08:46:35 08:50:15 28° 96° (E) 08:53:52 437.432
UWE-3 23 Apr 08:52:35 08:56:13 29° 96° (E) 08:59:54 435.000/436.395/437.385
Oscar 11 23 Apr 08:52:49 08:54:36 12° 91° (E) 08:56:23 .
CUBEBUG 2 23 Apr 08:56:49 09:00:54 56° 100° (E) 09:05:01 437.445
SEEDS 23 Apr 09:01:25 09:05:42 85° 283° (WNW) 09:09:57 437.485
RS-15 23 Apr 09:02:02 09:14:05 80° 302° (WNW) 09:26:34 29.354- 29.394
UNISAT 6 23 Apr 09:10:41 09:12:32 12° 64° (ENE) 09:14:22 437.425
HO-68 23 Apr 09:33:11 09:40:04 51° 292° (WNW) 09:46:58 435.675
ISS 23 Apr 09:45:34 09:48:39 42° 136° (SE) 09:51:45 437.550
PRISM 23 Apr 09:49:06 09:53:08 56° 74° (ENE) 09:57:14 437.425
Tancredo 1 23 Apr 09:53:37 09:56:42 70° 139° (SE) 09:59:48 437.200
ZACube-1 23 Apr 09:56:50 10:01:02 86° 283° (WNW) 10:05:18 437.345
AO-73 23 Apr 10:06:09 10:10:20 75° 284° (WNW) 10:14:35 145.935
DELFI C3 23 Apr 10:07:08 10:10:23 23° 95° (E) 10:13:37 145.870
OBJECT BX 23 Apr 10:13:32 10:16:14 19° 95° (E) 10:18:55 145.990 - 145.960
FO-29 23 Apr 10:19:59 10:26:28 59° 73° (ENE) 10:32:14 435.910
AAUSAT CUBESAT 2 23 Apr 10:22:19 10:25:31 22° 291° (WNW) 10:28:43 437.432
TIGRISAT 23 Apr 10:24:17 10:28:43 76° 76° (ENE) 10:33:04 435.000
Oscar 11 23 Apr 10:26:47 10:31:00 52° 286° (WNW) 10:35:14 .
UWE-3 23 Apr 10:29:22 10:32:30 21° 291° (WNW) 10:35:40 435.000/436.395/437.385
CUBEBUG 2 23 Apr 10:35:40 10:37:02 11° 295° (WNW) 10:38:24 437.445
UNISAT 6 23 Apr 10:44:22 10:48:45 58° 259° (W) 10:53:04 437.425
AIST 2D 23 Apr 11:04:11 11:06:56 23° 71° (ENE) 11:09:43 435.315
EO-79 23 Apr 11:07:35 11:10:18 17° 67° (ENE) 11:13:00 145.935-145.965
O/OREOS (USA 219) 23 Apr 11:11:51 11:16:15 49° 106° (ESE) 11:20:42 437.305
DUCHIFAT 1 23 Apr 11:14:27 11:17:05 16° 66° (ENE) 11:19:42 145.980
RS-15 23 Apr 11:18:47 11:28:54 29° 329° (NNW) 11:39:10 29.354- 29.394
ISS 23 Apr 11:22:35 11:25:14 23° 332° (NNW) 11:27:54 437.550
PRISM 23 Apr 11:27:53 11:28:44 11° 269° (W) 11:29:36 437.425
LO-87 23 Apr 11:30:25 11:33:14 22° 95° (E) 11:36:01 145.935 - 145.965
Tancredo 1 23 Apr 11:30:51 11:32:56 16° 336° (NNW) 11:35:02 437.200
DELFI C3 23 Apr 11:41:50 11:45:03 23° 290° (WNW) 11:48:15 145.870
POLYITAN 1 23 Apr 11:44:07 11:48:08 43° 73° (ENE) 11:52:07 437.675
OBJECT BX 23 Apr 11:46:55 11:49:50 23° 290° (WNW) 11:52:47 145.990 - 145.960
QB50P2 23 Apr 11:50:20 11:54:28 56° 74° (ENE) 11:58:37 145.880/145.840
PCSat 23 Apr 11:55:18 11:59:47 25° 51° (NE) 12:04:14 145.827
FO-29 23 Apr 12:07:06 12:11:43 20° 265° (W) 12:16:02 435.910
NANOSAT C BR1 23 Apr 12:16:10 12:20:23 86° 258° (WSW) 12:24:37 145.865
Oscar 19 23 Apr 12:24:08 12:26:29 13° 61° (ENE) 12:28:50 437.125/150
BUGSAT 1 23 Apr 12:30:43 12:34:33 37° 72° (ENE) 12:38:23 437.445
AIST 2D 23 Apr 12:37:43 12:40:06 17° 266° (W) 12:42:30 435.315
EO-79 23 Apr 12:41:47 12:45:44 38° 262° (W) 12:49:42 145.935-145.965
DUCHIFAT 1 23 Apr 12:48:28 12:52:24 39° 261° (W) 12:56:21 145.980
ESTCUBE 1 23 Apr 12:50:01 12:54:34 77° 285° (WNW) 12:59:06 437.505/2401.250
O/OREOS (USA 219) 23 Apr 12:53:01 12:55:57 16° 304° (WNW) 12:58:54 437.305
LO-87 23 Apr 13:03:55 13:06:33 19° 290° (WNW) 13:09:09 145.935 - 145.965
SPROUT 23 Apr 13:15:56 13:20:05 51° 100° (E) 13:24:12 437.525
VELOX 1 23 Apr 13:20:07 13:24:31 61° 101° (E) 13:28:52 145.980
POLYITAN 1 23 Apr 13:21:48 13:24:05 14° 267° (W) 13:26:23 437.675
AO-7 23 Apr 13:28:43 13:31:23 12° 46° (NE) 13:34:02 .
QB50P2 23 Apr 13:29:25 13:30:35 11° 269° (W) 13:31:44 145.880/145.840
Gurwin Techsat 1B 23 Apr 13:31:29 13:36:13 34° 69° (ENE) 13:40:58 435.225
PCSat 23 Apr 13:38:11 13:43:22 46° 248° (WSW) 13:48:30 145.827
RS-15 23 Apr 13:39:30 13:47:29 19° 4° (N) 13:55:24 29.354- 29.394
AO-85 23 Apr 13:53:14 13:57:35 77° 118° (ESE) 14:01:40 145.980
UKube-1 23 Apr 13:59:33 14:03:39 41° 99° (E) 14:07:44 .
Oscar 19 23 Apr 13:59:59 14:05:07 75° 258° (WSW) 14:10:19 437.125/150
50 SAT 23 Apr 14:02:06 14:05:33 60° 284° (WNW) 14:08:58 437.505
BUGSAT 1 23 Apr 14:07:24 14:10:01 16° 266° (W) 14:12:38 437.445
DX 1 23 Apr 14:24:32 14:28:53 68° 285° (WNW) 14:33:11 434.975-435.025
ISS 23 Apr 14:39:54 14:40:26 10° 13° (NNE) 14:40:59 437.550
Tancredo 1 23 Apr 14:46:09 14:47:07 11° 17° (NNE) 14:48:07 437.200
SPROUT 23 Apr 14:53:32 14:55:32 13° 295° (WNW) 14:57:30 437.525
BEESAT 2 23 Apr 14:55:18 14:58:13 20° 111° (ESE) 15:01:11 435.950
VELOX 1 23 Apr 14:58:37 15:00:24 12° 297° (WNW) 15:02:11 145.980
BEESAT 23 Apr 15:02:38 15:05:33 16° 93° (E) 15:08:26 436.000
BEESAT 3 23 Apr 15:03:51 15:07:45 74° 118° (ESE) 15:11:44 437.485
SO-50 23 Apr 15:07:49 15:08:50 11° 39° (NE) 15:09:52 436.795
Gurwin Techsat 1B 23 Apr 15:11:38 15:16:08 28° 264° (W) 15:20:41 435.225
AO-7 23 Apr 15:14:20 15:22:22 57° 66° (ENE) 15:30:25 .
ITAMSAT 1 23 Apr 15:17:38 15:22:40 52° 72° (ENE) 15:27:42 435.822/435.867
MOZHAYETS 4 23 Apr 15:29:33 15:32:00 14° 92° (E) 15:34:26
UKube-1 23 Apr 15:36:37 15:39:19 17° 295° (WNW) 15:42:02 .
AO-85 23 Apr 15:36:52 15:38:24 12° 316° (NW) 15:39:55 145.980
ITUPSAT 1 23 Apr 15:39:27 15:43:55 38° 99° (E) 15:48:21 437.325
YUBILEINY 23 Apr 15:41:27 15:49:35 40° 74° (ENE) 15:57:41 435.215
RS-15 23 Apr 15:54:18 16:05:21 36° 39° (NE) 16:15:56 29.354- 29.394
ISS 23 Apr 16:14:42 16:17:42 33° 32° (NNE) 16:20:41 437.550
Tancredo 1 23 Apr 16:20:41 16:23:42 46° 36° (NE) 16:26:43 437.200
BEESAT 2 23 Apr 16:32:12 16:35:46 32° 307° (NW) 16:39:24 435.950
BEESAT 23 Apr 16:38:58 16:43:34 49° 288° (WNW) 16:48:07 436.000
BEESAT 3 23 Apr 16:44:20 16:45:49 12° 317° (NW) 16:47:21 437.485
SO-50 23 Apr 16:45:33 16:50:05 76° 58° (ENE) 16:54:34 436.795
ITAMSAT 1 23 Apr 16:59:02 17:02:24 17° 267° (W) 17:05:47 435.822/435.867
MOZHAYETS 4 23 Apr 17:04:57 17:09:25 51° 286° (WNW) 17:13:53
AO-7 23 Apr 17:08:28 17:15:27 30° 263° (W) 17:22:29 .
ITUPSAT 1 23 Apr 17:17:53 17:21:27 21° 294° (WNW) 17:25:01 437.325
XW-2F 23 Apr 17:24:08 17:24:40 10° 65° (ENE) 17:25:12 145.980 - 146.000
YUBILEINY 23 Apr 17:38:18 17:46:18 42° 273° (W) 17:54:20 435.215
CUTE-I 23 Apr 17:39:25 17:43:38 24° 66° (ENE) 17:47:50 437.470
KKS-1 23 Apr 17:43:38 17:48:04 71° 102° (ESE) 17:52:28 437.445
NUDT-PHONESAT 23 Apr 17:44:59 17:47:11 15° 68° (ENE) 17:49:22 437.300
CUBESAT XI-V 23 Apr 17:45:53 17:50:37 72° 102° (ESE) 17:55:18 437.345
ISS 23 Apr 17:51:23 17:54:03 23° 228° (SW) 17:56:43 437.550
Tancredo 1 23 Apr 17:57:32 17:59:22 15° 230° (SW) 18:01:11 437.200
RS-15 23 Apr 18:06:54 18:19:06 77° 244° (WSW) 18:30:39 29.354- 29.394
XW-2D 23 Apr 18:08:02 18:11:32 39° 74° (ENE) 18:15:03 145.860 - 145.880
DOVE 4 23 Apr 18:08:25 18:13:42 73° 75° (ENE) 18:18:58 437.250
HO-68 23 Apr 18:14:46 18:19:31 19° 57° (ENE) 18:24:16 435.675
XW-2B 23 Apr 18:14:46 18:18:21 47° 74° (ENE) 18:21:58 145.730 - 145.750
LilacSat-2 23 Apr 18:21:23 18:25:04 62° 76° (ENE) 18:28:48 437.200
STARS 23 Apr 18:25:38 18:30:02 88° 111° (ESE) 18:34:22 437.465
XW-2C 23 Apr 18:26:22 18:30:04 70° 77° (ENE) 18:33:48 145.795 - 145.815
KAITUO 1B 23 Apr 18:32:59 18:36:37 66° 76° (ENE) 18:40:17 145.475/437.950
XW-2A 23 Apr 18:51:40 18:53:26 14° 68° (ENE) 18:55:11 145.665 - 145.685
XW-2F 23 Apr 18:54:44 18:58:20 49° 260° (W) 19:01:58 145.980 - 146.000
NUDT-PHONESAT 23 Apr 19:17:35 19:20:50 30° 263° (W) 19:24:06 437.300
CUTE-I 23 Apr 19:18:22 19:23:24 41° 261° (W) 19:28:28 437.470
KKS-1 23 Apr 19:22:58 19:24:00 11° 298° (WNW) 19:25:02 437.445
CUTE 1.7 + AOD 2 23 Apr 19:24:35 19:28:29 39° 73° (ENE) 19:32:26 437.475
CUBESAT XI-V 23 Apr 19:25:41 19:27:20 12° 297° (WNW) 19:28:59 437.345
AAUSAT CUBESAT 2 23 Apr 19:36:06 19:38:40 16° 67° (ENE) 19:41:14 437.432
XW-2D 23 Apr 19:44:32 19:45:54 12° 268° (W) 19:47:17 145.860 - 145.880
UWE-3 23 Apr 19:48:34 19:51:45 20° 69° (ENE) 19:54:53 435.000/436.395/437.385
DOVE 4 23 Apr 19:49:26 19:51:48 13° 271° (W) 19:54:10 437.250
SEEDS 23 Apr 19:51:15 19:55:17 51° 74° (ENE) 19:59:22 437.485
CUBEBUG 2 23 Apr 19:53:12 19:57:19 39° 73° (ENE) 20:01:20 437.445
HO-68 23 Apr 19:59:15 20:06:24 80° 255° (WSW) 20:13:36 435.675
NO-84 23 Apr 20:03:53 20:06:38 20° 127° (SE) 20:09:14 435.350 FM
STRAND 1 23 Apr 20:10:03 20:14:54 44° 99° (E) 20:19:45 437.568
RS-15 23 Apr 20:22:55 20:29:19 16° 264° (W) 20:35:37 29.354- 29.394
XW-2A 23 Apr 20:22:59 20:25:55 27° 263° (W) 20:28:51 145.665 - 145.685
M-CUBED/EXP-1 PRIME 23 Apr 20:40:56 20:45:14 81° 107° (ESE) 20:49:09 437.505
ZACube-1 23 Apr 20:50:52 20:55:02 58° 75° (ENE) 20:59:08 437.345
DELFI C3 23 Apr 20:52:49 20:54:17 12° 65° (ENE) 20:55:45 145.870
JUGNU 23 Apr 20:54:56 20:57:13 12° 180° (S) 20:59:29 437.505
AO-73 23 Apr 20:59:49 21:04:00 67° 76° (ENE) 21:08:08 145.935
CUTE 1.7 + AOD 2 23 Apr 21:01:58 21:04:28 15° 268° (W) 21:06:59 437.475
AAUSAT CUBESAT 2 23 Apr 21:09:56 21:13:47 38° 262° (W) 21:17:41 437.432
Oscar 11 23 Apr 21:19:30 21:23:47 86° 258° (WSW) 21:28:07 .
O/OREOS (USA 219) 23 Apr 21:23:12 21:27:48 75° 68° (ENE) 21:32:20 437.305
UWE-3 23 Apr 21:24:09 21:28:01 31° 263° (W) 21:31:48 435.000/436.395/437.385
SEEDS 23 Apr 21:29:49 21:31:16 12° 269° (W) 21:32:43 437.485
CUBEBUG 2 23 Apr 21:31:10 21:34:03 17° 266° (W) 21:36:52 437.445
NO-84 23 Apr 21:40:41 21:44:02 37° 320° (NW) 21:47:08 435.350 FM
STRAND 1 23 Apr 21:50:00 21:53:45 21° 295° (WNW) 21:57:30 437.568
HO-68 23 Apr 21:52:45 21:55:05 12° 272° (W) 21:57:26 435.675
SRMSAT 23 Apr 22:12:04 22:13:22 11° 172° (S) 22:14:38 437.500
TIGRISAT 23 Apr 22:18:13 22:20:56 16° 93° (E) 22:23:39 435.000
OBJECT BX 23 Apr 22:22:15 22:25:52 70° 259° (W) 22:29:30 145.990 - 145.960
DELFI C3 23 Apr 22:24:44 22:28:35 50° 260° (W) 22:32:29 145.870
AO-85 23 Apr 22:25:39 22:29:24 38° 55° (NE) 22:33:16 145.980
ZACube-1 23 Apr 22:31:10 22:31:38 10° 269° (W) 22:32:05 437.345
UNISAT 6 23 Apr 22:37:33 22:41:18 30° 97° (E) 22:45:06 437.425
PRISM 23 Apr 23:06:50 23:10:59 71° 286° (WNW) 23:15:06 437.425
FO-29 23 Apr 23:15:17 23:20:23 54° 101° (E) 23:25:44 435.910
BEESAT 2 23 Apr 23:15:29 23:16:19 10° 42° (NE) 23:17:08 435.950
BEESAT 3 23 Apr 23:22:16 23:25:43 27° 51° (NE) 23:29:08 437.485
LO-87 23 Apr 23:37:16 23:40:52 63° 259° (W) 23:44:30 145.935 - 145.965
ESTCUBE 1 23 Apr 23:47:38 23:52:06 80° 78° (ENE) 23:56:38 437.505/2401.250
TIGRISAT 23 Apr 23:53:48 23:57:45 38° 288° (WNW) 00:01:43 435.000
SRMSAT 23 Apr 23:59:26 00:01:37 12° 183° (S) 00:03:47 437.500
NANOSAT C BR1 24 Apr 00:03:01 00:05:40 16° 93° (E) 00:08:17 145.865
AIST 2D 24 Apr 00:03:04 00:06:18 33° 98° (E) 00:09:31 435.315
AO-85 24 Apr 00:06:53 00:09:30 17° 249° (WSW) 00:12:11 145.980
SPROUT 24 Apr 00:07:46 00:11:35 32° 71° (ENE) 00:15:23 437.525
UNISAT 6 24 Apr 00:14:36 00:17:51 21° 292° (WNW) 00:21:06 437.425
VELOX 1 24 Apr 00:15:35 00:19:49 44° 72° (ENE) 00:24:04 145.980
EO-79 24 Apr 00:27:40 00:31:31 34° 98° (E) 00:35:20 145.935-145.965
50 SAT 24 Apr 00:33:24 00:36:35 34° 73° (ENE) 00:39:47 437.505
DUCHIFAT 1 24 Apr 00:33:43 00:37:30 33° 98° (E) 00:41:15 145.980
BEESAT 2 24 Apr 00:50:36 00:54:40 89° 261° (W) 00:58:42 435.950
UKube-1 24 Apr 00:52:35 00:56:19 29° 70° (ENE) 01:00:05 .
BEESAT 3 24 Apr 00:59:54 01:03:12 25° 248° (WSW) 01:06:28 437.485
FO-29 24 Apr 01:01:50 01:05:06 17° 296° (WNW) 01:08:27 435.910
POLYITAN 1 24 Apr 01:05:38 01:09:50 80° 284° (WNW) 01:14:01 437.675
QB50P2 24 Apr 01:12:06 01:16:16 61° 285° (WNW) 01:20:24 145.880/145.840
DX 1 24 Apr 01:18:03 01:22:25 85° 77° (ENE) 01:26:50 434.975-435.025
AIST 2D 24 Apr 01:37:34 01:39:11 13° 292° (WNW) 01:40:48 435.315
NANOSAT C BR1 24 Apr 01:37:37 01:41:28 36° 288° (WNW) 01:45:19 145.865
SPROUT 24 Apr 01:44:23 01:47:31 20° 266° (W) 01:50:39 437.525
BUGSAT 1 24 Apr 01:48:39 01:52:41 79° 104° (ESE) 01:56:41 437.445
Gurwin Techsat 1B 24 Apr 01:50:23 01:53:15 15° 91° (E) 01:56:06 435.225
VELOX 1 24 Apr 01:53:48 01:56:28 16° 267° (W) 01:59:08 145.980
EO-79 24 Apr 02:04:08 02:06:59 18° 293° (WNW) 02:09:50 145.935-145.965
BEESAT 24 Apr 02:07:55 02:10:53 17° 64° (ENE) 02:13:53 436.000
50 SAT 24 Apr 02:08:25 02:09:40 12° 267° (W) 02:10:55 437.505
DUCHIFAT 1 24 Apr 02:10:00 02:12:55 19° 293° (WNW) 02:15:49 145.980
Oscar 19 24 Apr 02:13:07 02:18:04 43° 99° (E) 02:23:00 437.125/150
UKube-1 24 Apr 02:28:56 02:32:19 22° 265° (W) 02:35:43 .
MOZHAYETS 4 24 Apr 02:31:06 02:32:50 12° 63° (ENE) 02:34:36
PCSat 24 Apr 02:35:37 02:40:09 28° 108° (ESE) 02:44:44 145.827
ITUPSAT 1 24 Apr 02:44:41 02:49:03 38° 71° (ENE) 02:53:26 437.325
AO-7 24 Apr 03:19:11 03:24:35 19° 92° (E) 03:29:58 .
Gurwin Techsat 1B 24 Apr 03:28:20 03:33:36 64° 287° (WNW) 03:38:50 435.225
ITAMSAT 1 24 Apr 03:32:46 03:36:34 20° 94° (E) 03:40:20 435.822/435.867
BEESAT 24 Apr 03:43:39 03:48:15 50° 260° (W) 03:52:52 436.000
Oscar 19 24 Apr 03:53:08 03:57:04 22° 295° (WNW) 04:01:00 437.125/150
MOZHAYETS 4 24 Apr 04:04:55 04:09:25 65° 259° (W) 04:13:57
NO-84 24 Apr 04:15:45 04:18:35 58° 43° (NE) 04:21:23 435.350 FM
PCSat 24 Apr 04:18:21 04:23:22 38° 305° (NW) 04:28:26 145.827
ITUPSAT 1 24 Apr 04:23:28 04:26:58 20° 266° (W) 04:30:30 437.325
KKS-1 24 Apr 04:39:51 04:44:13 53° 73° (ENE) 04:48:35 437.445
YUBILEINY 24 Apr 04:40:22 04:48:34 49° 89° (E) 04:56:47 435.215
CUBESAT XI-V 24 Apr 04:47:23 04:51:55 58° 74° (ENE) 04:56:30 437.345
AO-7 24 Apr 05:09:50 05:18:10 84° 290° (WNW) 05:26:30 .
ITAMSAT 1 24 Apr 05:11:18 05:16:11 44° 290° (WNW) 05:21:05 435.822/435.867
STARS 24 Apr 05:20:19 05:24:41 64° 74° (ENE) 05:29:04 437.465
DOVE 4 24 Apr 06:10:22 06:13:50 20° 92° (E) 06:17:08 437.250
KKS-1 24 Apr 06:19:00 06:21:04 13° 268° (W) 06:23:07 437.445
RS-15 24 Apr 06:20:02 06:27:31 19° 98° (E) 06:35:06 29.354- 29.394
CUBESAT XI-V 24 Apr 06:27:38 06:29:38 13° 269° (W) 06:31:40 437.345
XW-2F 24 Apr 06:29:00 06:31:34 17° 94° (E) 06:34:08 145.980 - 146.000
YUBILEINY 24 Apr 06:37:49 06:45:31 35° 288° (WNW) 06:53:17 435.215
NUDT-PHONESAT 24 Apr 06:49:18 06:52:24 24° 96° (E) 06:55:30 437.300
SO-50 24 Apr 06:58:26 07:02:37 34° 114° (ESE) 07:06:45 436.795
STARS 24 Apr 07:00:39 07:01:23 10° 269° (W) 07:02:08 437.465
AO-7 24 Apr 07:04:32 07:09:44 19° 308° (NW) 07:14:57 .
XW-2D 24 Apr 07:15:36 07:19:25 77° 103° (ESE) 07:23:14 145.860 - 145.880
